Location: Suzhou
(31.3110°N, 120.6180°E)
Time: 17:46:09
(UTC+08:00)

NOAA 15 - Pass Details

Date: 27 May 2024
Orbit: 796 x 810 km, 98.6° (Epoch: 13 June)

Event Time Altitude Azimuth Distance (km) Brightness Sun altitude
Rises 19:26:50 0° 185° (S) 3,284 7.5 -7.0°
Reaches altitude 10° 19:29:18 10° 193° (SSW) 2,357 6.9 -7.4°
Maximum altitude 19:34:07 38° 261° (W) 1,194 6.0 -8.3°
Drops below altitude 10° 19:38:58 10° 329° (NNW) 2,369 8.2 -9.2°
Sets 19:41:28 0° 338° (NNW) 3,303 8.8 -9.6°
